| time (UTC) | temp F | wind direction | speed knots | gust knots | rain 1hr in | rain 24hr in | rain mn in | humidity % | barometer mb |
| 20260903202601 | 65 | 133 | 6.1 | 13.9 | 0.00 | 0.01 | 0.01 | 46 | 1020.6 |
| 20260903202320 | 66 | 147 | 7.0 | 13.9 | 0.00 | 0.01 | 0.01 | 44 | 1020.7 |
| 20260903201559 | 66 | 130 | 7.0 | 11.3 | 0.00 | 0.01 | 0.01 | 44 | 1020.7 |
| 20260903201100 | 67 | 118 | 6.1 | 15.6 | 0.00 | 0.01 | 0.01 | 44 | 1020.7 |
| 20260903200559 | 67 | 140 | 7.8 | 15.6 | 0.00 | 0.01 | 0.01 | 43 | 1020.6 |
| 20260903200100 | 67 | 62 | 4.3 | 9.6 | 0.00 | 0.01 | 0.01 | 44 | 1020.7 |
| 20260903195826 | 65 | 96 | 1.7 | 10.4 | 0.00 | 0.01 | 0.01 | 46 | 1020.8 |
| 20260903195102 | 66 | 114 | 5.2 | 10.4 | 0.00 | 0.01 | 0.01 | 43 | 1020.8 |
| 20260903194600 | 66 | 131 | 4.3 | 13.0 | 0.00 | 0.01 | 0.01 | 43 | 1020.8 |
| 20260903194319 | 67 | 141 | 7.0 | 13.0 | 0.00 | 0.01 | 0.01 | 42 | 1020.8 |
| 20260903193600 | 67 | 52 | 7.0 | 13.0 | 0.00 | 0.01 | 0.01 | 45 | 1020.7 |
| 20260903193100 | 67 | 140 | 5.2 | 10.4 | 0.00 | 0.01 | 0.01 | 45 | 1020.7 |
| 20260903192821 | 66 | 59 | 3.5 | 10.4 | 0.00 | 0.01 | 0.01 | 45 | 1020.7 |
| 20260903192321 | 66 | 114 | 6.1 | 10.4 | 0.00 | 0.01 | 0.01 | 47 | 1020.6 |
| 20260903191823 | 66 | 118 | 5.2 | 13.9 | 0.00 | 0.01 | 0.01 | 47 | 1020.5 |
| 20260903191101 | 66 | 133 | 4.3 | 13.9 | 0.00 | 0.01 | 0.01 | 46 | 1020.6 |
| 20260903190601 | 66 | 59 | 4.3 | 11.3 | 0.00 | 0.01 | 0.01 | 46 | 1020.6 |
| 20260903190105 | 66 | 61 | 5.2 | 11.3 | 0.00 | 0.01 | 0.01 | 47 | 1020.6 |
| 20260903185559 | 66 | 54 | 5.2 | 11.3 | 0.00 | 0.01 | 0.01 | 40 | 1020.6 |
| 20260903185100 | 66 | 120 | 5.2 | 11.3 | 0.00 | 0.01 | 0.01 | 40 | 1020.6 |
| 20260903184559 | 66 | 69 | 4.3 | 9.6 | 0.00 | 0.01 | 0.01 | 42 | 1020.6 |
| 20260903184059 | 66 | 104 | 5.2 | 9.6 | 0.00 | 0.01 | 0.01 | 42 | 1020.6 |
| 20260903183819 | 65 | 102 | 2.6 | 7.8 | 0.00 | 0.01 | 0.01 | 45 | 1020.7 |
| 20260903183056 | 65 | 76 | 4.3 | 6.1 | 0.00 | 0.01 | 0.01 | 45 | 1020.7 |
| 20260903182813 | 65 | 155 | 1.7 | 6.1 | 0.00 | 0.01 | 0.01 | 43 | 1020.7 |
| 20260903182318 | 65 | 128 | 3.5 | 8.7 | 0.00 | 0.01 | 0.01 | 46 | 1020.7 |
| 20260903181558 | 65 | 55 | 3.5 | 8.7 | 0.00 | 0.01 | 0.01 | 47 | 1020.7 |
| 20260903181058 | 65 | 107 | 3.5 | 7.8 | 0.00 | 0.01 | 0.01 | 46 | 1020.7 |
| 20260903180604 | 64 | 134 | 1.7 | 6.1 | 0.00 | 0.01 | 0.01 | 47 | 1020.8 |
| 20260903180318 | 64 | 207 | 1.7 | 6.1 | 0.00 | 0.01 | 0.01 | 46 | 1020.7 |
| 20260903175558 | 64 | 75 | 1.7 | 5.2 | 0.00 | 0.01 | 0.01 | 45 | 1020.7 |
| 20260903175057 | 64 | 89 | 1.7 | 4.3 | 0.00 | 0.01 | 0.01 | 46 | 1020.7 |
| 20260903174559 | 63 | 72 | 0.9 | 4.3 | 0.00 | 0.01 | 0.01 | 46 | 1020.8 |
| 20260903174057 | 64 | 125 | 1.7 | 3.5 | 0.00 | 0.01 | 0.01 | 44 | 1020.7 |
| 20260903173559 | 64 | 52 | 1.7 | 3.5 | 0.00 | 0.01 | 0.01 | 46 | 1020.7 |
| 20260903173057 | 63 | 79 | 0.9 | 3.5 | 0.00 | 0.01 | 0.01 | 43 | 1020.8 |
| 20260903172557 | 63 | 13 | 0.0 | 3.5 | 0.00 | 0.01 | 0.01 | 44 | 1020.6 |
| 20260903172057 | 63 | 66 | 1.7 | 3.5 | 0.00 | 0.01 | 0.01 | 47 | 1020.7 |
| 20260903171559 | 64 | 39 | 0.9 | 2.6 | 0.00 | 0.01 | 0.01 | 45 | 1020.6 |
| 20260903171058 | 63 | 214 | 0.0 | 2.6 | 0.00 | 0.01 | 0.01 | 48 | 1020.6 |
| 20260903170602 | 62 | 355 | 1.7 | 2.6 | 0.00 | 0.01 | 0.01 | 53 | 1020.6 |
| 20260903170055 | 62 | 62 | 0.9 | 6.1 | 0.00 | 0.01 | 0.01 | 53 | 1020.6 |
| 20260903165556 | 62 | 51 | 0.9 | 6.1 | 0.00 | 0.01 | 0.01 | 55 | 1020.5 |
| 20260903165056 | 61 | 350 | 0.0 | 2.6 | 0.00 | 0.01 | 0.01 | 57 | 1020.6 |
| 20260903164557 | 61 | 314 | 0.9 | 5.2 | 0.00 | 0.01 | 0.01 | 59 | 1020.5 |
| 20260903164056 | 60 | 233 | 0.9 | 5.2 | 0.00 | 0.01 | 0.01 | 57 | 1020.5 |
| 20260903163556 | 60 | 269 | 0.0 | 2.6 | 0.00 | 0.01 | 0.01 | 61 | 1020.5 |
| 20260903163055 | 59 | 11 | 1.7 | 3.5 | 0.00 | 0.01 | 0.01 | 62 | 1020.5 |
| 20260903162827 | 59 | 66 | 0.9 | 3.5 | 0.00 | 0.01 | 0.01 | 62 | 1020.5 |
| 20260903162056 | 59 | 345 | 0.9 | 2.6 | 0.00 | 0.01 | 0.01 | 69 | 1020.5 |
| 20260903161559 | 58 | 228 | 0.0 | 1.7 | 0.00 | 0.01 | 0.01 | 72 | 1020.6 |
| 20260903161100 | 58 | 340 | 0.9 | 1.7 | 0.00 | 0.01 | 0.01 | 72 | 1020.5 |
| 20260903160825 | 58 | 47 | 0.0 | 0.9 | 0.00 | 0.01 | 0.01 | 74 | 1020.5 |
| 20260903160534 | 58 | 110 | 0.0 | 0.9 | 0.00 | 0.01 | 0.01 | 80 | 1020.5 |
| 20260903155555 | 57 | 47 | 0.0 | 1.7 | 0.00 | 0.01 | 0.01 | 83 | 1020.6 |
| 20260903155055 | 56 | 155 | 0.0 | 1.7 | 0.00 | 0.01 | 0.01 | 85 | 1020.5 |
| 20260903154556 | 56 | 109 | 0.0 | 1.7 | 0.00 | 0.01 | 0.01 | 87 | 1020.6 |
| 20260903154055 | 55 | 109 | 0.0 | 1.7 | 0.00 | 0.01 | 0.01 | 88 | 1020.7 |
| 20260903153556 | 54 | 75 | 0.0 | 1.7 | 0.00 | 0.01 | 0.01 | 91 | 1020.6 |
| 20260903153053 | 53 | 85 | 0.0 | 1.7 | 0.00 | 0.01 | 0.01 | 91 | 1020.7 |
| 20260903152555 | 53 | 131 | 0.0 | 0.9 | 0.00 | 0.01 | 0.01 | 92 | 1020.8 |
| 20260903152322 | 52 | 131 | 0.0 | 0.9 | 0.00 | 0.01 | 0.01 | 92 | 1020.7 |
| 20260903151554 | 52 | 144 | 0.0 | 0.9 | 0.00 | 0.01 | 0.01 | 92 | 1020.6 |
| 20260903151054 | 52 | 125 | 0.0 | 0.9 | 0.00 | 0.01 | 0.01 | 92 | 1020.6 |
| 20260903150557 | 51 | 159 | 0.0 | 0.0 | 0.00 | 0.01 | 0.01 | 92 | 1020.6 |
| 20260903150053 | 51 | 159 | 0.0 | 0.0 | 0.00 | 0.01 | 0.01 | 93 | 1020.5 |
| 20260903145553 | 51 | 159 | 0.0 | 0.0 | 0.00 | 0.01 | 0.01 | 92 | 1020.6 |
| 20260903145054 | 51 | 159 | 0.0 | 0.0 | 0.00 | 0.01 | 0.01 | 92 | 1020.6 |
| 20260903144555 | 51 | 159 | 0.0 | 0.0 | 0.00 | 0.01 | 0.01 | 92 | 1020.5 |
| 20260903144054 | 50 | 159 | 0.0 | 0.0 | 0.00 | 0.01 | 0.01 | 92 | 1020.5 |
| 20260903143553 | 50 | 159 | 0.0 | 0.0 | 0.00 | 0.01 | 0.01 | 92 | 1020.4 |
| 20260903143054 | 50 | 159 | 0.0 | 0.0 | 0.00 | 0.01 | 0.01 | 92 | 1020.4 |
| 20260903142814 | 50 | 159 | 0.0 | 0.9 | 0.00 | 0.01 | 0.01 | 92 | 1020.3 |
| 20260903142053 | 50 | 159 | 0.0 | 0.9 | 0.00 | 0.01 | 0.01 | 92 | 1020.3 |
| 20260903141553 | 50 | 182 | 0.0 | 0.0 | 0.00 | 0.01 | 0.01 | 91 | 1020.3 |
| 20260903141054 | 51 | 182 | 0.0 | 0.0 | 0.00 | 0.01 | 0.01 | 91 | 1020.2 |
| 20260903140556 | 51 | 182 | 0.0 | 0.0 | 0.00 | 0.01 | 0.01 | 91 | 1020.2 |
| 20260903140317 | 51 | 182 | 0.0 | 0.0 | 0.00 | 0.01 | 0.01 | 92 | 1020.2 |
| 20260903135815 | 51 | 196 | 0.0 | 0.0 | 0.00 | 0.01 | 0.01 | 92 | 1020.1 |
| 20260903135052 | 51 | 196 | 0.0 | 0.0 | 0.00 | 0.01 | 0.01 | 92 | 1020.1 |
| 20260903134552 | 51 | 196 | 0.0 | 0.0 | 0.00 | 0.01 | 0.01 | 91 | 1019.9 |
| 20260903134544 | 51 | 196 | 0.0 | 0.0 | 0.00 | 0.01 | 0.01 | 91 | 1019.9 |
| 20260903133554 | 51 | 196 | 0.0 | 0.0 | 0.00 | 0.01 | 0.01 | 91 | 1019.9 |
| 20260903133051 | 51 | 196 | 0.0 | 0.0 | 0.00 | 0.01 | 0.01 | 91 | 1019.8 |
| 20260903132552 | 51 | 196 | 0.0 | 0.0 | 0.00 | 0.01 | 0.01 | 90 | 1019.8 |
| 20260903132051 | 51 | 196 | 0.0 | 0.0 | 0.00 | 0.01 | 0.01 | 90 | 1019.8 |
| 20260903131558 | 51 | 196 | 0.0 | 0.0 | 0.00 | 0.01 | 0.01 | 90 | 1019.8 |
| 20260903131053 | 51 | 196 | 0.0 | 0.0 | 0.00 | 0.01 | 0.01 | 90 | 1019.8 |
| 20260903130551 | 51 | 196 | 0.0 | 0.0 | 0.00 | 0.01 | 0.01 | 91 | 1019.8 |
| 20260903130051 | 51 | 196 | 0.0 | 0.0 | 0.00 | 0.01 | 0.01 | 91 | 1019.8 |
| 20260903125551 | 52 | 196 | 0.0 | 0.0 | 0.00 | 0.01 | 0.01 | 91 | 1019.6 |
| 20260903125312 | 51 | 196 | 0.0 | 0.0 | 0.00 | 0.01 | 0.01 | 91 | 1019.5 |
| 20260903124551 | 52 | 196 | 0.0 | 0.0 | 0.00 | 0.01 | 0.01 | 91 | 1019.5 |
| 20260903124052 | 52 | 196 | 0.0 | 0.0 | 0.00 | 0.01 | 0.01 | 91 | 1019.4 |
| 20260903123552 | 51 | 196 | 0.0 | 0.0 | 0.00 | 0.01 | 0.01 | 90 | 1019.5 |
| 20260903123544 | 51 | 196 | 0.0 | 0.0 | 0.00 | 0.01 | 0.01 | 90 | 1019.5 |
| 20260903122551 | 51 | 196 | 0.0 | 0.0 | 0.00 | 0.01 | 0.01 | 90 | 1019.4 |
| 20260903122050 | 51 | 196 | 0.0 | 0.0 | 0.00 | 0.01 | 0.01 | 91 | 1019.3 |
| 20260903121551 | 51 | 196 | 0.0 | 0.0 | 0.00 | 0.01 | 0.01 | 91 | 1019.4 |
| 20260903121050 | 51 | 196 | 0.0 | 0.0 | 0.00 | 0.01 | 0.01 | 91 | 1019.3 |
| 20260903120757 | 51 | 196 | 0.0 | 0.0 | 0.00 | 0.01 | 0.01 | 90 | 1019.4 |
| 20260903120644 | 51 | 196 | 0.0 | 0.0 | 0.00 | 0.01 | 0.01 | 91 | 1019.5 |
| 20260903120043 | 51 | 196 | 0.0 | 0.0 | 0.00 | 0.01 | 0.01 | 91 | 1019.5 |
| 20260903115050 | 51 | 197 | 0.0 | 0.0 | 0.00 | 0.01 | 0.01 | 91 | 1019.4 |
| 20260903114551 | 51 | 197 | 0.0 | 0.0 | 0.00 | 0.01 | 0.01 | 91 | 1019.3 |
| 20260903114049 | 51 | 196 | 0.0 | 0.0 | 0.00 | 0.01 | 0.01 | 91 | 1019.3 |
| 20260903113550 | 51 | 219 | 0.0 | 0.0 | 0.00 | 0.01 | 0.01 | 91 | 1019.3 |
| 20260903113050 | 52 | 227 | 0.0 | 0.0 | 0.00 | 0.01 | 0.01 | 91 | 1019.3 |
| 20260903112549 | 52 | 227 | 0.0 | 0.0 | 0.00 | 0.01 | 0.01 | 91 | 1019.3 |
| 20260903112049 | 52 | 227 | 0.0 | 0.0 | 0.00 | 0.01 | 0.01 | 90 | 1019.3 |
| 20260903111548 | 52 | 227 | 0.0 | 0.0 | 0.00 | 0.01 | 0.01 | 90 | 1019.2 |
| 20260903111050 | 52 | 227 | 0.0 | 0.0 | 0.00 | 0.01 | 0.01 | 89 | 1019.1 |
| 20260903110758 | 52 | 227 | 0.0 | 1.7 | 0.00 | 0.01 | 0.01 | 90 | 1019.1 |
| 20260903110648 | 53 | 227 | 0.0 | 1.7 | 0.00 | 0.01 | 0.01 | 89 | 1019.0 |
| 20260903105549 | 52 | 251 | 0.0 | 1.7 | 0.00 | 0.01 | 0.01 | 91 | 1019.0 |
| 20260903105048 | 52 | 245 | 0.0 | 1.7 | 0.00 | 0.01 | 0.01 | 91 | 1018.9 |
| 20260903104548 | 52 | 254 | 0.0 | 1.7 | 0.00 | 0.01 | 0.01 | 91 | 1018.7 |
| 20260903104048 | 52 | 166 | 0.0 | 0.0 | 0.00 | 0.01 | 0.01 | 91 | 1018.9 |
| 20260903103549 | 53 | 168 | 0.0 | 0.0 | 0.01 | 0.01 | 0.01 | 90 | 1019.0 |
| 20260903103049 | 53 | 168 | 0.0 | 0.9 | 0.01 | 0.01 | 0.01 | 90 | 1019.0 |
| 20260903102549 | 53 | 168 | 0.0 | 0.9 | 0.01 | 0.01 | 0.01 | 90 | 1019.2 |
| 20260903102047 | 53 | 166 | 0.0 | 0.0 | 0.01 | 0.01 | 0.01 | 90 | 1019.2 |
| 20260903101810 | 53 | 168 | 0.0 | 0.0 | 0.01 | 0.01 | 0.01 | 90 | 1019.1 |
| 20260903101047 | 53 | 168 | 0.0 | 0.0 | 0.01 | 0.01 | 0.01 | 90 | 1019.1 |
| 20260903100548 | 53 | 168 | 0.0 | 0.0 | 0.01 | 0.01 | 0.01 | 90 | 1019.0 |
| 20260903100314 | 53 | 168 | 0.0 | 0.0 | 0.01 | 0.01 | 0.01 | 89 | 1019.0 |
| 20260903095547 | 53 | 166 | 0.0 | 0.0 | 0.01 | 0.01 | 0.01 | 88 | 1019.1 |
| 20260903095048 | 54 | 165 | 0.0 | 0.0 | 0.01 | 0.01 | 0.01 | 87 | 1019.1 |
| 20260903094548 | 54 | 165 | 0.0 | 0.9 | 0.01 | 0.01 | 0.01 | 86 | 1019.0 |
| 20260903094049 | 54 | 165 | 0.0 | 1.7 | 0.01 | 0.01 | 0.01 | 82 | 1019.1 |
| 20260903094038 | 54 | 166 | 0.0 | 1.7 | 0.00 | 0.00 | 0.00 | 83 | 1019.1 |
| 20260903093048 | 54 | 185 | 0.0 | 0.9 | 0.00 | 0.00 | 0.00 | 83 | 1019.1 |
| 20260903092552 | 54 | 128 | 0.0 | 0.9 | 0.00 | 0.00 | 0.00 | 84 | 1019.0 |
| 20260903092047 | 54 | 144 | 0.0 | 0.9 | 0.00 | 0.00 | 0.00 | 82 | 1019.0 |
| 20260903091546 | 55 | 343 | 0.0 | 0.0 | 0.00 | 0.00 | 0.00 | 83 | 1019.0 |
| 20260903091048 | 55 | 343 | 0.0 | 0.0 | 0.00 | 0.00 | 0.00 | 82 | 1018.9 |
| 20260903090547 | 55 | 343 | 0.0 | 0.0 | 0.00 | 0.00 | 0.00 | 81 | 1018.9 |
| 20260903090045 | 56 | 343 | 0.0 | 0.0 | 0.00 | 0.00 | 0.00 | 78 | 1018.9 |
| 20260903085808 | 56 | 343 | 0.0 | 1.7 | 0.00 | 0.00 | 0.00 | 78 | 1018.8 |
| 20260903085046 | 56 | 343 | 0.0 | 2.6 | 0.00 | 0.00 | 0.00 | 77 | 1018.8 |
| 20260903084547 | 56 | 341 | 1.7 | 2.6 | 0.00 | 0.00 | 0.00 | 77 | 1018.7 |
| 20260903084045 | 56 | 252 | 0.0 | 0.0 | 0.00 | 0.00 | 0.00 | 76 | 1018.7 |
| 20260903083545 | 56 | 251 | 0.0 | 0.0 | 0.00 | 0.00 | 0.00 | 74 | 1018.6 |
| 20260903083529 | 56 | 251 | 0.0 | 0.0 | 0.00 | 0.00 | 0.00 | 74 | 1018.7 |
| 20260903082545 | 56 | 251 | 0.0 | 0.9 | 0.00 | 0.00 | 0.00 | 73 | 1018.6 |
| 20260903082048 | 56 | 251 | 0.0 | 0.9 | 0.00 | 0.00 | 0.00 | 74 | 1018.4 |
| 20260903081544 | 56 | 255 | 0.0 | 0.9 | 0.00 | 0.00 | 0.00 | 75 | 1018.4 |
| 20260903081048 | 56 | 255 | 0.9 | 0.9 | 0.00 | 0.00 | 0.00 | 74 | 1018.4 |
| 20260903080545 | 56 | 254 | 0.0 | 0.0 | 0.00 | 0.00 | 0.00 | 73 | 1018.4 |
| 20260903080046 | 56 | 254 | 0.0 | 0.0 | 0.00 | 0.00 | 0.00 | 73 | 1018.3 |
| 20260903075544 | 57 | 254 | 0.0 | 0.0 | 0.00 | 0.00 | 0.00 | 73 | 1018.4 |
| 20260903075044 | 57 | 254 | 0.0 | 0.0 | 0.00 | 0.00 | 0.00 | 73 | 1018.4 |
| 20260903074545 | 57 | 254 | 0.0 | 0.0 | 0.00 | 0.00 | 0.00 | 73 | 1018.4 |
| 20260903074043 | 57 | 254 | 0.0 | 0.0 | 0.00 | 0.00 | 0.00 | 73 | 1018.4 |
| 20260903073545 | 57 | 254 | 0.0 | 1.7 | 0.00 | 0.00 | 0.00 | 72 | 1018.4 |
| 20260903073044 | 57 | 254 | 0.0 | 1.7 | 0.00 | 0.00 | 0.00 | 72 | 1018.3 |
| 20260903072546 | 57 | 255 | 0.0 | 0.0 | 0.00 | 0.00 | 0.00 | 72 | 1018.4 |
| 20260903072044 | 57 | 255 | 0.0 | 0.0 | 0.00 | 0.00 | 0.00 | 72 | 1018.2 |
| 20260903071543 | 57 | 255 | 0.0 | 0.0 | 0.00 | 0.00 | 0.00 | 71 | 1018.0 |
| 20260903071310 | 57 | 255 | 0.0 | 0.0 | 0.00 | 0.00 | 0.00 | 70 | 1017.9 |
| 20260903070543 | 58 | 255 | 0.0 | 0.0 | 0.00 | 0.00 | 0.00 | 70 | 1017.9 |
| 20260903070044 | 58 | 255 | 0.0 | 0.0 | 0.00 | 0.00 | 0.00 | 69 | 1018.0 |
| 20260903065543 | 58 | 255 | 0.0 | 0.0 | 0.00 | 0.00 | 0.00 | 67 | 1018.0 |
| 20260903065045 | 58 | 255 | 0.0 | 0.0 | 0.00 | 0.00 | 0.00 | 67 | 1018.0 |
| 20260903064753 | 58 | 148 | 0.0 | 0.0 | 0.00 | 0.00 | 0.00 | 68 | 1018.0 |
| 20260903064637 | 58 | 148 | 0.0 | 0.0 | 0.00 | 0.00 | 0.00 | 67 | 1018.0 |
| 20260903063759 | 58 | 121 | 0.0 | 0.0 | 0.00 | 0.00 | 0.00 | 68 | 1017.9 |
| 20260903063042 | 59 | 121 | 0.0 | 0.0 | 0.00 | 0.00 | 0.00 | 67 | 1017.8 |
| 20260903062542 | 59 | 121 | 0.0 | 0.0 | 0.00 | 0.00 | 0.00 | 65 | 1017.8 |
| 20260903062042 | 59 | 121 | 0.0 | 0.0 | 0.00 | 0.00 | 0.00 | 62 | 1017.8 |
| 20260903061543 | 60 | 121 | 0.0 | 0.0 | 0.00 | 0.00 | 0.00 | 62 | 1017.7 |
| 20260903061042 | 60 | 121 | 0.0 | 1.7 | 0.00 | 0.00 | 0.00 | 61 | 1017.7 |
| 20260903060546 | 60 | 121 | 0.0 | 3.5 | 0.00 | 0.00 | 0.00 | 61 | 1017.6 |
| 20260903060041 | 60 | 172 | 1.7 | 3.5 | 0.00 | 0.00 | 0.00 | 61 | 1017.7 |
| 20260903055543 | 60 | 131 | 1.7 | 3.5 | 0.00 | 0.00 | 0.00 | 61 | 1017.7 |
| 20260903055041 | 60 | 144 | 2.6 | 5.2 | 0.00 | 0.00 | 0.00 | 60 | 1017.6 |
| 20260903054759 | 60 | 155 | 3.5 | 5.2 | 0.00 | 0.00 | 0.00 | 59 | 1017.5 |
| 20260903054041 | 60 | 121 | 1.7 | 3.5 | 0.00 | 0.00 | 0.00 | 60 | 1017.5 |
| 20260903053541 | 60 | 137 | 0.0 | 0.9 | 0.00 | 0.00 | 0.00 | 61 | 1017.5 |
| 20260903053041 | 60 | 137 | 0.0 | 0.0 | 0.00 | 0.00 | 0.00 | 60 | 1017.3 |
| 20260903052540 | 61 | 138 | 0.0 | 0.0 | 0.00 | 0.00 | 0.00 | 60 | 1017.3 |
| 20260903052307 | 61 | 138 | 0.0 | 0.0 | 0.00 | 0.00 | 0.00 | 58 | 1017.3 |
| 20260903051540 | 61 | 137 | 0.0 | 1.7 | 0.00 | 0.00 | 0.00 | 58 | 1017.2 |
| 20260903051042 | 61 | 138 | 0.9 | 1.7 | 0.00 | 0.00 | 0.00 | 57 | 1017.3 |
| 20260903050540 | 61 | 104 | 0.9 | 1.7 | 0.00 | 0.00 | 0.00 | 57 | 1017.3 |
| 20260903050041 | 61 | 207 | 0.0 | 1.7 | 0.00 | 0.00 | 0.00 | 57 | 1017.2 |
| 20260903045540 | 61 | 175 | 0.9 | 3.5 | 0.00 | 0.00 | 0.00 | 57 | 1017.2 |
| 20260903045039 | 61 | 113 | 1.7 | 3.5 | 0.00 | 0.00 | 0.00 | 57 | 1017.2 |
| 20260903044547 | 61 | 166 | 0.9 | 2.6 | 0.00 | 0.00 | 0.00 | 57 | 1017.1 |
| 20260903044304 | 62 | 140 | 1.7 | 3.5 | 0.00 | 0.00 | 0.00 | 57 | 1017.1 |
| 20260903043541 | 62 | 128 | 1.7 | 3.5 | 0.00 | 0.00 | 0.00 | 56 | 1017.0 |
| 20260903043040 | 62 | 118 | 1.7 | 3.5 | 0.00 | 0.00 | 0.00 | 56 | 1016.9 |
| 20260903042541 | 62 | 121 | 0.9 | 2.6 | 0.00 | 0.00 | 0.00 | 56 | 1017.0 |
| 20260903042044 | 62 | 145 | 0.9 | 2.6 | 0.00 | 0.00 | 0.00 | 55 | 1017.0 |
| 20260903041540 | 62 | 124 | 1.7 | 4.3 | 0.00 | 0.00 | 0.00 | 55 | 1017.0 |
| 20260903041040 | 62 | 90 | 1.7 | 4.3 | 0.00 | 0.00 | 0.00 | 54 | 1017.0 |
| 20260903040539 | 62 | 123 | 1.7 | 4.3 | 0.00 | 0.00 | 0.00 | 54 | 1017.0 |
| 20260903040043 | 62 | 123 | 1.7 | 5.2 | 0.00 | 0.00 | 0.00 | 53 | 1016.8 |
| 20260903035544 | 63 | 113 | 1.7 | 9.6 | 0.00 | 0.00 | 0.00 | 53 | 1016.7 |
| 20260903035041 | 63 | 114 | 3.5 | 9.6 | 0.00 | 0.00 | 0.00 | 52 | 1016.7 |
| 20260903034800 | 63 | 137 | 3.5 | 6.1 | 0.00 | 0.00 | 0.00 | 53 | 1016.4 |
| 20260903034040 | 63 | 124 | 2.6 | 6.1 | 0.00 | 0.00 | 0.00 | 53 | 1016.5 |
| 20260903033538 | 63 | 72 | 1.7 | 4.3 | 0.00 | 0.00 | 0.00 | 54 | 1016.4 |
| 20260903033306 | 63 | 109 | 0.0 | 4.3 | 0.00 | 0.00 | 0.00 | 54 | 1016.3 |
| 20260903032539 | 63 | 113 | 1.7 | 4.3 | 0.00 | 0.00 | 0.00 | 53 | 1016.3 |
| 20260903032038 | 63 | 86 | 0.9 | 6.1 | 0.00 | 0.00 | 0.00 | 53 | 1016.2 |
| 20260903031539 | 64 | 121 | 1.7 | 6.1 | 0.00 | 0.00 | 0.00 | 52 | 1016.2 |
| 20260903031038 | 64 | 78 | 2.6 | 6.1 | 0.00 | 0.00 | 0.00 | 51 | 1016.2 |
| 20260903030539 | 64 | 97 | 0.9 | 6.1 | 0.00 | 0.00 | 0.00 | 50 | 1016.1 |
| 20260903030038 | 64 | 104 | 1.7 | 6.1 | 0.00 | 0.00 | 0.00 | 50 | 1016.1 |
| 20260903025537 | 64 | 113 | 2.6 | 5.2 | 0.00 | 0.00 | 0.00 | 49 | 1016.1 |
| 20260903025037 | 65 | 118 | 1.7 | 7.8 | 0.00 | 0.00 | 0.00 | 48 | 1016.0 |
| 20260903024538 | 65 | 106 | 1.7 | 7.8 | 0.00 | 0.00 | 0.00 | 48 | 1016.1 |
| 20260903024037 | 65 | 161 | 2.6 | 7.8 | 0.00 | 0.00 | 0.00 | 47 | 1016.1 |
| 20260903023537 | 66 | 87 | 2.6 | 11.3 | 0.00 | 0.00 | 0.00 | 46 | 1016.1 |
| 20260903023038 | 66 | 110 | 2.6 | 16.5 | 0.00 | 0.00 | 0.00 | 45 | 1016.1 |
| 20260903022537 | 67 | 123 | 5.2 | 16.5 | 0.00 | 0.00 | 0.00 | 44 | 1016.0 |
| 20260903022039 | 67 | 140 | 7.8 | 15.6 | 0.00 | 0.00 | 0.00 | 43 | 1016.0 |
| 20260903021537 | 67 | 118 | 6.1 | 15.6 | 0.00 | 0.00 | 0.00 | 42 | 1015.9 |
| 20260903021036 | 67 | 89 | 4.3 | 13.9 | 0.00 | 0.00 | 0.00 | 42 | 1015.8 |
| 20260903020537 | 67 | 75 | 3.5 | 8.7 | 0.00 | 0.00 | 0.00 | 42 | 1015.8 |
| 20260903020035 | 67 | 86 | 3.5 | 12.2 | 0.00 | 0.00 | 0.00 | 42 | 1015.7 |
| 20260903015800 | 67 | 128 | 7.8 | 12.2 | 0.00 | 0.00 | 0.00 | 42 | 1015.8 |
| 20260903015305 | 67 | 120 | 3.5 | 7.8 | 0.00 | 0.00 | 0.00 | 42 | 1015.9 |
| 20260903014538 | 67 | 87 | 3.5 | 7.8 | 0.00 | 0.00 | 0.00 | 42 | 1015.8 |
| 20260903014036 | 67 | 111 | 3.5 | 10.4 | 0.00 | 0.00 | 0.00 | 42 | 1015.8 |
| 20260903013537 | 68 | 110 | 4.3 | 10.4 | 0.00 | 0.00 | 0.00 | 42 | 1015.8 |
| 20260903013036 | 68 | 109 | 4.3 | 11.3 | 0.00 | 0.00 | 0.00 | 42 | 1015.8 |
| 20260903013028 | 68 | 111 | 3.5 | 11.3 | 0.00 | 0.00 | 0.00 | 41 | 1015.8 |
| 20260903012036 | 68 | 68 | 3.5 | 13.0 | 0.00 | 0.00 | 0.00 | 40 | 1015.7 |
| 20260903011535 | 68 | 148 | 7.8 | 13.0 | 0.00 | 0.00 | 0.00 | 39 | 1015.7 |
| 20260903011036 | 68 | 123 | 2.6 | 10.4 | 0.00 | 0.00 | 0.00 | 40 | 1015.6 |
| 20260903010535 | 69 | 120 | 3.5 | 10.4 | 0.00 | 0.00 | 0.00 | 39 | 1015.7 |
| 20260903010259 | 69 | 138 | 5.2 | 10.4 | 0.00 | 0.00 | 0.00 | 39 | 1015.6 |
| 20260903005535 | 69 | 97 | 5.2 | 12.2 | 0.00 | 0.00 | 0.00 | 38 | 1015.6 |
| 20260903005035 | 69 | 137 | 7.0 | 16.5 | 0.00 | 0.00 | 0.00 | 38 | 1015.6 |
| 20260903004535 | 69 | 93 | 7.0 | 16.5 | 0.00 | 0.00 | 0.00 | 37 | 1015.5 |
| 20260903004035 | 69 | 87 | 8.7 | 15.6 | 0.00 | 0.00 | 0.00 | 37 | 1015.4 |
| 20260903003535 | 70 | 182 | 9.6 | 16.5 | 0.00 | 0.00 | 0.00 | 36 | 1015.5 |
| 20260903003033 | 70 | 117 | 7.8 | 16.5 | 0.00 | 0.00 | 0.00 | 36 | 1015.4 |
| 20260903002535 | 70 | 155 | 7.8 | 16.5 | 0.00 | 0.00 | 0.00 | 36 | 1015.4 |
| 20260903002254 | 70 | 100 | 9.6 | 18.2 | 0.00 | 0.00 | 0.00 | 35 | 1015.3 |
| 20260903001535 | 70 | 111 | 8.7 | 18.2 | 0.00 | 0.00 | 0.00 | 36 | 1015.3 |
| 20260903001034 | 70 | 104 | 7.8 | 16.5 | 0.00 | 0.00 | 0.00 | 36 | 1015.1 |
| 20260903000534 | 70 | 80 | 6.1 | 15.6 | 0.00 | 0.00 | 0.00 | 37 | 1015.3 |
| 20260903000033 | 70 | 82 | 7.8 | 15.6 | 0.00 | 0.00 | 0.00 | 37 | 1015.3 |
| 20260902235529 | 70 | 111 | 5.2 | 16.5 | 0.00 | 0.00 | 0.00 | 37 | 1015.3 |
| 20260902235035 | 70 | 78 | 8.7 | 16.5 | 0.00 | 0.00 | 0.00 | 37 | 1015.3 |
| 20260902234533 | 70 | 120 | 5.2 | 18.2 | 0.00 | 0.00 | 0.00 | 37 | 1015.3 |
| 20260902234034 | 71 | 24 | 6.1 | 18.2 | 0.00 | 0.00 | 0.00 | 37 | 1015.2 |
| 20260902233533 | 71 | 121 | 7.8 | 16.5 | 0.00 | 0.00 | 0.00 | 36 | 1015.1 |
| 20260902233035 | 71 | 125 | 7.8 | 16.5 | 0.00 | 0.00 | 0.00 | 37 | 1015.1 |
| 20260902232533 | 71 | 104 | 5.2 | 16.5 | 0.00 | 0.00 | 0.00 | 36 | 1015.2 |
| 20260902232033 | 71 | 118 | 7.0 | 13.0 | 0.00 | 0.00 | 0.00 | 36 | 1015.1 |
| 20260902231532 | 71 | 137 | 5.2 | 15.6 | 0.00 | 0.00 | 0.00 | 36 | 1015.2 |
| 20260902231033 | 71 | 190 | 6.1 | 15.6 | 0.00 | 0.00 | 0.00 | 35 | 1015.2 |
| 20260902230533 | 71 | 110 | 7.0 | 13.9 | 0.00 | 0.00 | 0.00 | 36 | 1015.2 |
| 20260902230031 | 71 | 110 | 7.0 | 13.9 | 0.00 | 0.00 | 0.00 | 36 | 1015.2 |
| 20260902225759 | 71 | 117 | 4.3 | 13.0 | 0.00 | 0.00 | 0.00 | 36 | 1015.2 |
| 20260902225032 | 71 | 87 | 3.5 | 10.4 | 0.00 | 0.00 | 0.00 | 37 | 1015.2 |
| 20260902224800 | 71 | 100 | 5.2 | 12.2 | 0.00 | 0.00 | 0.00 | 37 | 1015.3 |
| 20260902224032 | 72 | 128 | 6.1 | 13.9 | 0.00 | 0.00 | 0.00 | 37 | 1015.2 |
| 20260902223532 | 71 | 25 | 6.1 | 14.8 | 0.00 | 0.00 | 0.00 | 36 | 1015.3 |
| 20260902223029 | 71 | 75 | 7.8 | 14.8 | 0.00 | 0.00 | 0.00 | 37 | 1015.3 |
| 20260902222528 | 71 | 87 | 5.2 | 10.4 | 0.00 | 0.00 | 0.00 | 39 | 1015.5 |
| 20260902222032 | 71 | 110 | 4.3 | 10.4 | 0.00 | 0.00 | 0.00 | 39 | 1015.6 |
| 20260902221531 | 71 | 128 | 4.3 | 11.3 | 0.00 | 0.00 | 0.00 | 39 | 1015.6 |
| 20260902221033 | 71 | 104 | 7.0 | 12.2 | 0.00 | 0.00 | 0.00 | 39 | 1015.7 |
| 20260902220531 | 71 | 116 | 7.0 | 13.9 | 0.00 | 0.00 | 0.00 | 39 | 1015.8 |
| 20260902220030 | 71 | 118 | 5.2 | 13.9 | 0.00 | 0.00 | 0.00 | 40 | 1015.9 |
| 20260902215531 | 71 | 90 | 4.3 | 13.0 | 0.00 | 0.00 | 0.00 | 39 | 1015.9 |
| 20260902215031 | 71 | 151 | 7.0 | 17.4 | 0.00 | 0.00 | 0.00 | 40 | 1016.0 |
| 20260902214531 | 71 | 147 | 6.1 | 17.4 | 0.00 | 0.00 | 0.00 | 40 | 1016.0 |
| 20260902214031 | 71 | 83 | 7.0 | 16.5 | 0.00 | 0.00 | 0.00 | 41 | 1016.1 |
| 20260902213532 | 71 | 147 | 2.6 | 11.3 | 0.00 | 0.00 | 0.00 | 41 | 1016.3 |
| 20260902213031 | 71 | 89 | 5.2 | 11.3 | 0.00 | 0.00 | 0.00 | 41 | 1016.2 |
| 20260902212532 | 71 | 107 | 3.5 | 11.3 | 0.00 | 0.00 | 0.00 | 42 | 1016.2 |
| 20260902212032 | 71 | 79 | 3.5 | 10.4 | 0.00 | 0.00 | 0.00 | 42 | 1016.3 |
| 20260902211530 | 71 | 72 | 4.3 | 11.3 | 0.00 | 0.00 | 0.00 | 42 | 1016.3 |
| 20260902211030 | 71 | 138 | 5.2 | 13.9 | 0.00 | 0.00 | 0.00 | 42 | 1016.5 |
| 20260902210529 | 71 | 62 | 7.0 | 14.8 | 0.00 | 0.00 | 0.00 | 41 | 1016.4 |
| 20260902210514 | 72 | 114 | 6.1 | 14.8 | 0.00 | 0.00 | 0.00 | 41 | 1016.5 |
| 20260902210004 | 73 | 124 | 5.2 | 12.2 | 0.00 | 0.00 | 0.00 | 41 | 1016.7 |
| 20260902205622 | 73 | 127 | 7.0 | 12.2 | 0.00 | 0.00 | 0.00 | 40 | 1016.5 |
| 20260902204529 | 73 | 114 | 6.1 | 13.9 | 0.00 | 0.00 | 0.00 | 41 | 1016.5 |
| 20260902204033 | 73 | 61 | 7.8 | 13.9 | 0.00 | 0.00 | 0.00 | 42 | 1016.4 |
| 20260902203528 | 72 | 102 | 6.1 | 13.0 | 0.00 | 0.00 | 0.00 | 42 | 1016.4 |
| 20260902203029 | 71 | 79 | 5.2 | 13.9 | 0.00 | 0.00 | 0.00 | 44 | 1016.4 |